AO-07 1 07530U 74089B 20086.88297571 -.00000046 00000-0 -50934-5 0 9994 2 07530 101.7911 057.1153 0012239 161.4741 252.8905 12.53642607075649 UO-11 1 14781U 84021B 20086.77964658 .00000059 00000-0 13300-4 0 9999 2 14781 097.5952 102.8459 0009942 109.9898 250.2388 14.83151904919572 LO-19 1 20442U 90005G 20086.83847551 .00000012 00000-0 20663-4 0 9997 2 20442 098.6840 033.8464 0012561 042.2785 317.9365 14.32948068576726 HUBBLE 1 20580U 90037B 20086.81700231 .00000432 00000-0 15277-4 0 9997 2 20580 028.4689 146.2179 0002447 284.0168 035.4510 15.09358897443464 MET-2/21 1 22782U 93055A 20086.73650606 .00000015 00000-0 -41825-7 0 9996 2 22782 82.5465 299.2355 0023580 106.2423 324.3855 13.83824358341872 AO-27 1 22825U 93061C 20086.88341055 -.00000018 00000-0 11112-4 0 9998 2 22825 098.9237 087.2568 0007382 255.8058 104.2303 14.30080823382014 IO-26 1 22826U 93061D 20086.88916424 -.00000013 00000-0 13030-4 0 9993 2 22826 098.9177 087.2194 0007973 242.6997 117.3373 14.30415823382244 FO-29 1 24278U 96046B 20086.86786998 -.00000033 00000-0 44053-5 0 9993 2 24278 098.5714 207.5615 0349594 228.6111 128.4486 13.53096880165716 NOAA-15 1 25338U 98030A 20086.84673058 .00000013 00000-0 23968-4 0 9994 2 25338 098.7258 112.2838 0011224 139.0770 221.1254 14.25956134137204 GO-32 1 25397U 98043D 20086.72566954 -.00000010 00000-0 15165-4 0 9994 2 25397 098.7211 028.8861 0000693 359.6538 000.4640 14.23681567127788 ISS 1 25544U 98067A 20086.85553436 .00000847 00000-0 23615-4 0 9995 2 25544 51.6456 35.8414 0004954 61.7733 34.1849 15.48920273219252 NO-44 1 26931U 01043C 20086.88192905 -.00000005 00000-0 29674-4 0 9995 2 26931 067.0535 355.4798 0006078 265.2572 094.7836 14.30571114965262 SO-50 1 27607U 02058C 20086.89036639 -.00000008 00000-0 19615-4 0 9992 2 27607 064.5540 266.7984 0058276 198.4317 161.4675 14.75618869928544 CO-55 1 27844U 03031E 20086.83947860 .00000030 00000-0 33214-4 0 9993 2 27844 098.6846 095.8125 0008788 297.7875 062.2411 14.22227795868351 CO-57 1 27848U 03031J 20086.77179498 .00000024 00000-0 30800-4 0 9995 2 27848 098.6916 096.2944 0008816 311.5599 048.4822 14.21815975868193 RS-22 1 27939U 03042A 20086.91576672 .00000116 00000-0 29452-4 0 9992 2 27939 098.0757 222.8971 0011594 252.4800 107.5123 14.66845692881917 NOAA-18 1 28654U 05018A 20086.85248483 .00000085 00000-0 70493-4 0 9997 2 28654 099.0544 142.4707 0015296 103.9345 256.3528 14.12498157765259 CO-58 1 28895U 05043F 20086.29076384 .00000117 00000-0 31367-4 0 9992 2 28895 097.9949 225.0413 0016939 178.5505 181.5750 14.63749402768443 Falconsat-3 1 30776U 07006E 20086.70462862 .00002397 00000-0 65185-4 0 9997 2 30776 035.4345 089.2903 0002366 175.9544 184.1202 15.37410364724096 CO-65 1 32785U 08021C 20086.77923513 .00000197 00000-0 26835-4 0 9994 2 32785 097.5690 078.4546 0014286 051.8172 308.4330 14.88436562645577 AAUSAT2 1 32788U 08021F 20086.72694493 .00000134 00000-0 17242-4 0 9997 2 32788 097.4933 094.9007 0011118 341.4606 018.6209 14.94985714647050 DO-64 1 32789U 08021G 20086.70329110 .00000695 00000-0 49684-4 0 9994 2 32789 97.4286 132.3633 0010772 234.3676 125.6549 15.07543060649446 CO-66 1 32791U 08021J 20086.72125140 .00000297 00000-0 35328-4 0 9994 2 32791 97.5390 84.5384 0013929 24.8916 335.2972 14.90998921646136 RS-30 1 32953U 08025A 20086.90118368 .00000037 00000-0 19437-3 0 9996 2 32953 82.5061 329.2603 0018211 233.7790 126.1605 12.43094644537378 PRISM 1 33493U 09002B 20086.77167625 .00001141 00000-0 10470-3 0 9992 2 33493 98.1389 23.6709 0014296 335.3400 24.7135 14.96953770607342 NOAA-19 1 33591U 09005A 20086.85057009 .00000012 00000-0 32080-4 0 9995 2 33591 099.1970 090.0450 0013187 310.2474 049.7543 14.12399970573470 TISAT-1 1 36799U 10035E 20086.70874965 .00000177 00000-0 23935-4 0 9996 2 36799 098.1859 253.8386 0011132 237.5728 122.4413 14.91300209526596 JUGNU 1 37839U 11058B 20086.65878355 .00000307 00000-0 21657-4 0 9993 2 37839 019.9617 064.8604 0018918 194.8600 321.5446 14.12675279437067 SRMSAT 1 37841U 11058D 20086.54655442 .00000312 00000-0 26167-4 0 9991 2 37841 19.9712 128.1533 0012038 53.5175 99.7907 14.10653585436548 AO-71 1 37854U 11061E 20086.84809965 .00000687 00000-0 42688-4 0 9994 2 37854 101.7063 135.4865 0158658 307.4628 051.2242 15.07093363459036 HRBE 1 37855U 11061F 20086.80659028 .00000995 00000-0 57104-4 0 9995 2 37855 101.7204 132.6161 0171307 320.2515 038.6247 15.06111972458765 ALMASAT-1 1 38078U 12006B 20086.65498661 .00206698 21932-4 32945-3 0 9994 2 38078 69.4138 163.9409 0055596 180.8410 298.1689 16.00444610441911 HORYU-2 1 38340U 12025D 20086.83480669 .00000140 00000-0 28360-4 0 9996 2 38340 098.2913 138.3222 0010311 308.5116 051.5167 14.75824280412365 RS-40 1 38735U 12041C 20086.83976958 .00000011 00000-0 10953-4 0 9999 2 38735 082.4753 052.1658 0016965 346.2289 013.8327 12.42579214347594 BEESAT-3 1 39135U 13015F 20086.76499829 .00001004 00000-0 57984-4 0 9993 2 39135 64.8682 208.4404 0043427 260.1726 99.4496 15.18024052383051 BEESAT-2 1 39136U 13015G 20086.77905822 .00000872 00000-0 53014-4 0 9992 2 39136 064.8668 213.0927 0028910 280.5995 079.1875 15.17399259382577 ZACUBE-1 1 39417U 13066B 20086.88451821 .00000150 00000-0 25145-4 0 9990 2 39417 097.5647 089.5071 0058666 187.1764 172.8617 14.81239638342814 TRITON-1 1 39427U 13066M 20086.86620862 .00000257 00000-0 49046-4 0 9996 2 39427 097.7168 052.4269 0113322 343.0393 016.7036 14.67967500339542 GOMX-1 1 39430U 13066Q 20086.77565819 .00000200 00000-0 44715-4 0 9996 2 39430 97.7832 30.3343 0152495 85.0321 276.8277 14.59363703337742 LO-74 1 39440U 13066AA 20086.85078269 .00000170 00000-0 30834-4 0 9997 2 39440 97.6255 73.9464 0078689 248.0922 111.1909 14.75977769341590 AO-73 1 39444U 13066AE 20086.72702646 .00000224 00000-0 33723-4 0 9990 2 39444 097.5598 091.5397 0057966 180.2523 179.8672 14.82084162341113 SPROUT 1 39770U 14029E 20086.82325643 .00000750 00000-0 88495-4 0 9991 2 39770 97.8909 193.4996 0007841 234.6408 125.4068 14.87660390316772 DUCHIFAT-1 1 40021U 14033M 20086.86141891 .00000280 00000-0 34306-4 0 9992 2 40021 097.9389 017.6164 0012294 193.6816 166.4070 14.90844645313580 NANOSATCBR1 1 40024U 14033Q 20086.77132895 .00000231 00000-0 29849-4 0 9991 2 40024 097.9249 014.1675 0011524 198.1887 161.8920 14.90022610312920 DTUSAT-2 1 40030U 14033W 20086.74481564 .00000224 00000-0 30027-4 0 9997 2 40030 97.9027 8.7200 0011174 201.3241 158.7511 14.88674847313212 EO-80 1 40032U 14033Y 20086.82804221 .00000210 00000-0 28570-4 0 9992 2 40032 097.9034 008.8048 0011122 201.6379 158.4369 14.88622122312699 ANTELSAT 1 40034U 14033AA 20086.66463458 .00000174 00000-0 33179-4 0 9999 2 40034 97.7255 306.2744 0057173 266.2363 93.2308 14.74222929310219 VELOX-1 1 40057U 14034E 20086.76348960 .00000327 00000-0 53198-4 0 9999 2 40057 98.2644 221.5270 0012014 55.1340 305.0996 14.77825829309429 DAURIA DX 1 1 40071U 14037C 20086.77274221 .00000091 00000-0 19167-4 0 9993 2 40071 98.4536 260.6183 0009370 48.3993 311.8021 14.81344710309012 HODOYOSHI-1 1 40299U 14070B 20086.86278150 .00000638 00000-0 29177-4 0 9996 2 40299 97.3275 165.5038 0014502 122.4732 344.6254 15.23976687299237 CHUBUSAT-1 1 40300U 14070C 20086.85606229 .00000732 00000-0 34456-4 0 9991 2 40300 97.2966 158.4616 0020773 139.8163 284.9979 15.22410574298940 QSAT-EOS 1 40301U 14070D 20086.87442291 .00001858 00000-0 72784-4 0 9997 2 40301 97.2988 163.1935 0027002 119.3427 306.9151 15.26703550299334 FIREBIRD FU3 1 40377U 15003B 20086.83991879 .00001433 00000-0 59188-4 0 9996 2 40377 099.1053 130.1177 0123779 229.5532 129.4853 15.19753697284758 FIREBIRD FU4 1 40378U 15003C 20086.82500295 .00001437 00000-0 59308-4 0 9992 2 40378 099.1055 130.1933 0123963 229.4834 129.5545 15.19768924284758 GRIFEX 1 40379U 15003D 20086.79525943 .00000983 00000-0 45633-4 0 9997 2 40379 099.1128 122.5438 0132350 253.1995 105.4679 15.16196017284315 NO-84 1 40654U 15025D 20085.26688690 .00011271 00000-0 14058-3 0 8871 2 40654 54.9895 328.3185 0119464 331.2594 28.1901 15.52354462155945 DEORBITSAIL 1 40719U 15032E 20086.78204467 .00000358 00000-0 57951-4 0 9993 2 40719 097.8801 337.4185 0017581 112.5899 247.7173 14.76941214253891 NUDT-PHONESAT 1 40900U 15049B 20086.85898472 .00002078 00000-0 89213-4 0 9993 2 40900 97.4330 98.5324 0010797 276.2095 204.6092 15.23785130250619 XW-2A 1 40903U 15049E 20086.87599648 .00001775 00000-0 42457-4 0 9993 2 40903 97.2988 135.7341 0012560 195.8251 218.5161 15.42780090253741 XW-2C 1 40906U 15049H 20086.87290492 .00000698 00000-0 39790-4 0 9990 2 40906 97.4761 89.4468 0013305 305.4667 138.8137 15.15979314249749 XW-2D 1 40907U 15049J 20086.87232545 .00000648 00000-0 36994-4 0 9994 2 40907 97.4751 89.1425 0012552 302.2616 105.3788 15.16199232249768 LILACSAT-2 1 40908U 15049K 20086.88989510 .00000073 00000-0 76478-5 0 9991 2 40908 97.4896 87.6240 0014525 311.7859 114.0080 15.13983388249507 XW-2E 1 40909U 15049L 20086.96196326 .00000902 00000-0 47301-4 0 9999 2 40909 097.4637 092.5685 0011872 292.8151 121.7371 15.18275366250016 XW-2F 1 40910U 15049M 20086.75982671 .00000884 00000-0 47058-4 0 9992 2 40910 97.4678 91.4783 0012939 291.4809 154.6173 15.17785547249794 XW-2B 1 40911U 15049N 20086.92056568 .00000836 00000-0 46781-4 0 9998 2 40911 97.4760 89.8787 0012486 303.0841 117.2216 15.16127951249662 DCBB 1 40912U 15049P 20086.82489789 .00001123 00000-0 55013-4 0 9991 2 40912 97.4499 95.6010 0012919 267.2971 217.1690 15.20159726250165 TW-1C 1 40926U 15051B 20086.86109638 .00018196 00000-0 20370-3 0 9990 2 40926 97.0955 138.2232 0007509 54.5691 60.5241 15.62727057254113 TW-1A 1 40928U 15051D 20086.88545345 .00002717 00000-0 65176-4 0 9999 2 40928 097.1177 116.7108 0012410 122.3416 001.4949 15.42170879252648 IO-86 1 40931U 15052B 20084.71899075 .00000766 00000-0 17502-4 0 9998 2 40931 6.0018 219.7236 0013605 155.9783 204.1542 14.76629852242711 LQSat 1 40958U 15057A 20086.79381431 .00000018 00000-0 10352-4 0 9990 2 40958 97.8616 152.8226 0019305 58.3840 301.9248 14.73112309240337 ATHENOXAT-1 1 41168U 15077C 20086.83427431 .00002105 00000-0 75066-4 0 9994 2 41168 14.9884 307.5360 0011307 57.9500 302.1918 15.14202658236805 ChubuSat-2 1 41338U 16012B 20086.60295086 .00000328 00000-0 18769-4 0 9999 2 41338 031.0025 153.0480 0013796 015.6207 344.4852 15.00263039225288 ChubuSat-3 1 41339U 16012C 20086.80632019 .00000321 00000-0 18174-4 0 9996 2 41339 31.0114 149.4912 0013776 24.4697 335.6583 15.00430167225311 Horyu-4 1 41340U 16012D 20086.53327486 .00000475 00000-0 29240-4 0 9993 2 41340 31.0044 139.8309 0013959 45.5762 314.6015 15.01447658225409 OUFTI-1 1 41458U 16025C 20086.87052715 .00001593 00000-0 82853-4 0 9995 2 41458 098.0967 193.1360 0165512 127.5463 234.0932 15.06622645215046 e-st@r-II 1 41459U 16025D 20086.89260558 .00003079 00000-0 15711-3 0 9993 2 41459 098.0965 192.6378 0167020 129.4555 232.1554 15.06209731215010 AAUSAT4 1 41460U 16025E 20086.82180343 .00003584 00000-0 17736-3 0 9991 2 41460 98.0951 194.6078 0156094 119.5006 242.1860 15.08421778215184 LO-87 1 41557U 16033B 20086.86170233 .00001124 00000-0 44027-4 0 9990 2 41557 097.4029 177.6410 0014197 027.0038 333.1937 15.27830178213167 NuSat2 1 41558U 16033C 20086.86822979 .00001257 00000-0 46123-4 0 9998 2 41558 097.4074 179.6472 0013182 025.5634 334.6256 15.29792041213265 Lapan A3 1 41603U 16040E 20086.91259882 .00000013 00000-0 37172-5 0 9994 2 41603 097.3197 142.9942 0014758 126.9926 338.9284 15.19810130208605 Swayam 1 41607U 16040J 20086.67448400 .00001387 00000-0 60006-4 0 9993 2 41607 97.3272 147.9663 0014816 116.2360 244.0402 15.24004743208810 Pratham 1 41783U 16059A 20086.71912141 .00000049 00000-0 18747-4 0 9990 2 41783 098.0270 144.4628 0032860 214.7707 145.1348 14.63044106186782 AlSat 1N 1 41789U 16059G 20086.73958524 .00000081 00000-0 24271-4 0 9998 2 41789 98.0305 147.1092 0027767 202.1688 157.8305 14.64305065186925 ScatSat 1 41790U 16059H 20086.77972994 .00000013 00000-0 14111-4 0 9998 2 41790 98.1722 129.4822 0005739 162.0517 198.0871 14.50904626185236 TY-1 1 41844U 16066D 20086.93983844 .00000891 00000-0 38864-4 0 9995 2 41844 097.4051 096.0312 0013115 276.0551 152.8000 15.24716897187694 Pegasus-1 1 41846U 16066F 20086.68309939 .00000273 00000-0 50586-4 0 9995 2 41846 098.6726 135.8295 0368085 119.5911 244.2485 14.37726428177078 CAS-2T 1 41847U 16066G 20086.68815451 .00000070 00000-0 20044-4 0 9998 2 41847 98.6655 136.3239 0366766 115.4771 248.4831 14.38050308177526 EO-88 1 42017U 17008BX 20086.75141562 .00001359 00000-0 55256-4 0 9992 2 42017 097.3676 155.4998 0004639 247.4110 112.6638 15.26254682172936 nSIGHT1 1 42726U 98067MF 20086.82122119 .00154586 20941-4 33049-3 0 9994 2 42726 51.6257 287.1141 0005781 235.9299 124.1162 15.98250865162424 CAS-4B 1 42759U 17034B 20086.83690972 .00000104 00000-0 19820-4 0 9991 2 42759 43.0188 120.9576 0011851 236.4217 111.8120 15.09771013153472 CAS-4A 1 42761U 17034D 20086.85214120 .00000238 00000-0 27914-4 0 9994 2 42761 43.0189 120.2290 0012519 236.5842 114.2602 15.09850181153475 UCLSat 1 42765U 17036A 20086.72472487 .00001076 00000-0 48199-4 0 9997 2 42765 97.3112 143.1505 0010165 324.8142 35.2423 15.23335265153390 NIUSat 1 42766U 17036B 20086.80816371 .00000865 00000-0 41319-4 0 9993 2 42766 097.3110 140.9273 0014149 314.9208 045.0879 15.21570889153121 LituanicaSAT 2 1 42768U 17036D 20086.85938539 .00001839 00000-0 79250-4 0 9998 2 42768 097.3165 143.1352 0013274 311.2941 048.7152 15.23750448153260 Aalto 1 1 42775U 17036L 20086.79914102 .00000675 00000-0 32757-4 0 9997 2 42775 097.3092 141.2686 0012545 315.0772 044.9448 15.21717802153104 URSA MAIOR 1 42776U 17036M 20086.79804143 .00000757 00000-0 36233-4 0 9995 2 42776 097.3104 141.5174 0012351 314.9076 045.1157 15.21887007153110 Max Valier Sat 1 42778U 17036P 20086.79604086 .00000818 00000-0 38264-4 0 9995 2 42778 097.3154 142.6785 0010910 319.1562 040.8856 15.22468343153154 Pegasus 1 42784U 17036V 20086.79908124 .00001012 00000-0 45896-4 0 9998 2 42784 097.3118 142.9447 0010743 325.0705 034.9826 15.23035942153199 NUDATSat 1 42787U 17036Y 20086.92473432 .00001470 00000-0 63026-4 0 9998 2 42787 097.3163 144.2787 0011012 324.1262 035.9238 15.24255636153128 SUCHAI 1 1 42788U 17036Z 20086.85226833 .00001222 00000-0 53980-4 0 9995 2 42788 097.3126 143.5108 0010242 323.5340 036.5199 15.23551410153302 SKCUBE 1 42789U 17036AA 20086.82447570 .00001145 00000-0 50989-4 0 9996 2 42789 097.3120 143.3606 0010138 323.9868 036.0685 15.23408115153219 VZLUSAT 1 1 42790U 17036AB 20086.84749079 .00001486 00000-0 63744-4 0 9990 2 42790 097.3142 144.1994 0009575 321.9797 038.0764 15.24247438153261 VENTA 1 1 42791U 17036AC 20086.73217325 .00001095 00000-0 48874-4 0 9996 2 42791 097.3119 143.3168 0009833 325.2726 034.7868 15.23399008153196 Robusta 1B 1 42792U 17036AD 20086.78838248 .00001155 00000-0 51117-4 0 9996 2 42792 097.3122 143.5514 0009718 324.9629 035.0968 15.23593724153239 D-SAT 1 42794U 17036AF 20086.57458152 .00000305 00000-0 32024-4 0 9999 2 42794 097.5040 123.2900 0124673 281.7584 076.9671 14.91239515150347 TechnoSat 1 42829U 17042E 20086.74165068 .00000113 00000-0 16753-4 0 9993 2 42829 97.5319 332.3500 0013678 194.6151 165.4674 14.91070877146962 QIKCOM-1 1 42983U 98067NF 20086.80081505 .00004222 00000-0 55640-4 0 9993 2 42983 51.6403 1.9546 0004566 104.9225 255.2275 15.60879354137373 AO-91 1 43017U 17073E 20086.70933215 .00000669 00000-0 57955-4 0 9995 2 43017 097.7257 002.1272 0256403 320.2309 038.0349 14.78856455126938 EcAMSat 1 43019U 98067NG 20086.84886797 .00007948 00000-0 85085-4 0 9998 2 43019 051.6416 350.3491 0004732 096.1190 264.0344 15.64902216219853 PICSAT 1 43132U 18004X 20086.66723931 .00001264 00000-0 54785-4 0 9995 2 43132 097.4539 158.4983 0009187 354.8990 005.2153 15.24207961122449 AO-92 1 43137U 18004AC 20086.75651321 .00000896 00000-0 40005-4 0 9993 2 43137 097.4527 158.4565 0008880 357.1874 002.9312 15.23959393122457 TianYi 2 1 43155U 18008A 20086.86665602 .00001166 00000-0 72323-4 0 9995 2 43155 97.4546 158.0398 0019272 74.9015 36.2100 15.11518958120443 Zhou Enlai 1 43156U 18008B 20086.87514375 .00001285 00000-0 80393-4 0 9995 2 43156 97.4592 157.9051 0016391 73.9680 55.3540 15.11050827120407 TianYi 6 1 43158U 18008D 20086.79967414 .00001182 00000-0 75235-4 0 9999 2 43158 97.4552 156.9917 0015100 73.2308 45.3511 15.10596550120349 S-Net G 1 43186U 18014G 20086.82053189 .00000587 00000-0 56285-4 0 9998 2 43186 097.6988 355.9813 0012160 135.8382 224.3812 14.96769009117333 S-Net H 1 43187U 18014H 20086.75349676 .00000570 00000-0 54811-4 0 9995 2 43187 97.6985 355.8962 0012148 136.0497 224.1692 14.96768809117321 S-Net J 1 43188U 18014J 20086.55279661 .00000545 00000-0 52616-4 0 9993 2 43188 097.6988 355.7251 0012129 136.7469 223.4708 14.96768182117290 S-Net K 1 43189U 18014K 20086.82059537 .00000593 00000-0 56817-4 0 9992 2 43189 097.6985 355.9580 0012162 135.7573 224.4623 14.96768222115882 FMN 1 1 43192U 18015A 20086.88045877 .00002276 00000-0 93006-4 0 9996 2 43192 97.4289 216.8556 0016482 26.1698 91.1910 15.25292883119317 Shaonian Xing 1 43199U 18015H 20086.88495405 .00001655 00000-0 67872-4 0 9991 2 43199 97.4076 215.3455 0017762 36.0210 83.1920 15.25537127119373 1KUNS-PF 1 43466U 98067NP 20086.89649136 .00088055 00000-0 35844-3 0 9998 2 43466 051.6297 326.9819 0003313 186.2971 173.7992 15.85431943107343 UBAKUSAT 1 43467U 98067NQ 20086.85098815 .00023050 00000-0 18176-3 0 9990 2 43467 051.6350 345.6165 0002184 104.6227 255.5013 15.71317839107108 EnduroSat One 1 43551U 98067NZ 20086.84845237 .00035356 00000-0 24116-3 0 9994 2 43551 051.6344 345.5747 0005583 144.4779 215.6593 15.74472626097332 EQUISat 1 43552U 98067PA 20086.73271126 .00020755 00000-0 17188-3 0 9991 2 43552 51.6374 352.4143 0005905 135.6644 224.4827 15.70198239 97197 UiTMSat 1 1 43589U 98067PD 20086.80923795 .00030249 00000-0 23180-3 0 9993 2 43589 051.6344 351.2757 0005439 144.0340 216.1025 15.71820799092952 Maya 1 1 43590U 98067PE 20086.03929800 .00027843 00000-0 21415-3 0 9998 2 43590 051.6346 355.1425 0005524 141.1945 218.9450 15.71780376092762 Bhutan 1 1 43591U 98067PF 20086.78092278 .00025984 00000-0 19910-3 0 9992 2 43591 051.6357 351.1494 0005634 144.9238 215.2132 15.71911631092885 SiriusSat 1 1 43595U 98067PG 20086.84760164 .00026283 00000-0 21699-3 0 9999 2 43595 051.6348 354.5581 0003733 116.7446 243.3934 15.70124193092025 SiriusSat 2 1 43596U 98067PH 20086.84014371 .00026608 00000-0 22054-3 0 9999 2 43596 051.6354 355.3251 0004109 114.2629 245.8798 15.70020137092017 Tanusha-3 1 43597U 98067PJ 20086.86273806 .00042919 00000-0 27231-3 0 9997 2 43597 051.6319 347.0558 0003922 138.9973 221.1323 15.76054985092121 SurfSat 1 43614U 18070B 20086.82650321 .00002398 00000-0 62666-4 0 9999 2 43614 093.0241 120.4422 0012789 302.3577 057.6439 15.38787133085775 CP-7 DAVE 1 43615U 18070C 20086.59054727 .00002099 00000-0 55081-4 0 9993 2 43615 93.0245 120.3395 0012976 302.7915 57.2089 15.38662023 85739 ELFIN-B 1 43616U 18070D 20086.76371988 .00003330 00000-0 84030-4 0 9999 2 43616 093.0205 120.3311 0013447 304.4799 055.5184 15.39823471085797 ELFIN-A 1 43617U 18070E 20086.80598285 .00003634 00000-0 91248-4 0 9992 2 43617 093.0260 120.7917 0012689 300.6369 059.3634 15.39975393085808 STARS-Me Mother 1 43640U 98067PQ 20086.21193642 .00012543 00000-0 13735-3 0 9998 2 43640 051.6373 009.9124 0005312 083.7596 276.4004 15.63685414083690 CubeBel 1 1 43666U 18083E 20086.92057038 .00001032 00000-0 53902-4 0 9994 2 43666 097.4969 114.1716 0013275 290.0078 189.1670 15.18097855078091 Changshagaoxin 1 43669U 18083H 20086.84158743 .00000706 00000-0 38929-4 0 9992 2 43669 097.4851 112.5384 0009212 282.8146 077.2057 15.17168966078006 Ten-Koh 1 43677U 18084G 20086.83651320 .00000045 00000-0 10450-4 0 9995 2 43677 097.8713 204.1544 0017423 073.0577 287.2549 14.90260737076638 PO-101 1 43678U 18084H 20086.82889566 .00000388 00000-0 44322-4 0 9995 2 43678 097.8716 205.2960 0011600 090.4167 269.8394 14.91616818076703 IRVINE 01 1 43693U 18088D 20086.55703165 .00001842 00000-0 77560-4 0 9992 2 43693 085.0338 131.8813 0015959 230.6739 129.3089 15.22505708076233 QO-100 1 43700U 18090A 20086.73243674 .00000141 00000-0 00000 0 0 9999 2 43700 0.0232 203.6638 0002334 193.0830 77.3822 1.00273104 5122 Reaktor Hello World 1 43743U 18096AA 20086.89882447 .00001241 00000-0 49093-4 0 9998 2 43743 097.4271 161.1755 0019506 062.7588 052.0171 15.27214008073798 MinXSS-2 1 43758U 18099A 20086.84078954 -.00000027 00000-0 27605-5 0 9990 2 43758 097.7129 160.1069 0017110 104.5018 255.8102 14.95606275071608 AO-95 1 43770U 18099N 20086.84664830 -.00000107 00000-0 -45599-5 0 9990 2 43770 097.7123 159.6427 0016022 111.2838 249.0095 14.94935047071576 RANGE-B 1 43772U 18099Q 20086.74307059 .00000740 00000-0 72621-4 0 9994 2 43772 97.7187 159.9581 0015772 100.5532 259.7466 14.95105971 71559 RANGE-A 1 43773U 18099R 20086.83648127 -.00000042 00000-0 13967-5 0 9994 2 43773 097.7068 159.3357 0015105 099.5069 260.7860 14.94929079071568 MOVE-II 1 43780U 18099Y 20086.75065567 .00000860 00000-0 83056-4 0 9996 2 43780 97.7125 159.7067 0015220 109.8882 250.3980 14.95316678 71551 SNUSat 2 1 43782U 18099AA 20086.75590551 .00000593 00000-0 59064-4 0 9999 2 43782 97.7122 159.7355 0014394 99.5573 260.7275 14.95208583 71561 SnugLite 1 43784U 18099AC 20086.79646470 .00000253 00000-0 28082-4 0 9996 2 43784 97.7083 159.6252 0016596 107.0128 253.2913 14.95297721 71581 ITASat 1 1 43786U 18099AE 20086.72866712 .00000135 00000-0 17440-4 0 9999 2 43786 097.7136 159.8868 0016670 106.2574 254.0482 14.95279868071577 EAGLET 1 1 43790U 18099AJ 20086.74172334 .00000572 00000-0 56552-4 0 9998 2 43790 97.7127 160.1176 0015062 110.4597 249.8243 14.95661313 71280 ESEO 1 43792U 18099AL 20086.81358797 .00000512 00000-0 51249-4 0 9999 2 43792 097.7102 160.0516 0014882 107.0695 253.2158 14.95578206071352 CSIM 1 43793U 18099AM 20086.74753738 .00000932 00000-0 88145-4 0 9997 2 43793 97.7092 159.9239 0014780 105.9612 254.3238 14.95961259 71325 Astrocast 0.1 1 43798U 18099AS 20086.80741401 .00000445 00000-0 44915-4 0 9999 2 43798 097.7119 160.2652 0014032 092.2831 267.9997 14.95834049071592 JO-97 1 43803U 18099AX 20086.81959136 .00000725 00000-0 70629-4 0 9995 2 43803 97.7100 159.8156 0016806 106.2617 254.0454 14.95448290 71584 Suomi 100 1 43804U 18099AY 20086.75295431 .00000698 00000-0 68177-4 0 9994 2 43804 097.7099 159.7417 0016869 106.6336 253.6738 14.95439565071587 Al Farabi 2 1 43805U 18099AZ 20086.86728235 .00000481 00000-0 48513-4 0 9992 2 43805 097.7100 159.9163 0016766 106.6115 253.6948 14.95543193071601 PWSat 2 1 43814U 18099BJ 20086.79920299 .00024201 00000-0 15474-2 0 9992 2 43814 97.7830 166.1120 0010927 126.0478 234.1756 15.08557406 71243 CHOMPTT 1 43855U 18104G 20086.90724141 .00001336 00000-0 55158-4 0 9994 2 43855 085.0351 229.7879 0018097 004.0476 356.0913 15.22829707070961 ISAT 1 43879U 18111D 20086.83829297 .00000521 00000-0 51326-4 0 9996 2 43879 97.7075 355.5790 0013634 153.8520 206.3393 14.96184767 66138 UWE-4 1 43880U 18111E 20086.29681455 .00000849 00000-0 79890-4 0 9999 2 43880 097.7086 355.2726 0012862 155.9496 204.2328 14.96416961068057 Sparrow 1 43881U 18111F 20086.81714851 .00000644 00000-0 61741-4 0 9994 2 43881 097.7085 355.8440 0013101 153.7547 206.4341 14.96470782068135 Lume 1 1 43908U 18111AJ 20086.82957047 .00001041 00000-0 44407-4 0 9993 2 43908 097.2730 349.1699 0023096 076.2330 284.1477 15.24868290069436 FO-98 1 43933U 19003B 20086.89889725 .00000648 00000-0 31239-4 0 9997 2 43933 097.2413 139.7534 0018298 167.0340 280.6892 15.21991597065972 FO-99 1 43937U 19003F 20086.86440084 .00001304 00000-0 55967-4 0 9993 2 43937 097.2371 140.7326 0025024 152.6909 322.9131 15.24182636066051 Delphini 1 1 44030U 98067PW 20086.82293157 .00017800 00000-0 19517-3 0 9996 2 44030 051.6369 013.2538 0005071 124.1064 236.0412 15.63316108065571 MYSat 1 1 44045U 18092F 20086.91392748 .00002731 00000-0 86870-4 0 9992 2 44045 051.6434 082.9345 0011990 028.2740 331.8902 15.36234189062608 AstroCast 0.2 1 44083U 19018F 20086.82123898 -.00000015 00000-0 24269-5 0 9990 2 44083 097.4303 148.9732 0014934 101.0469 259.2447 15.21492090054817 AISTechSat 3 1 44103U 19018AB 20086.78820156 .00000823 00000-0 37896-4 0 9994 2 44103 97.4179 149.0590 0015180 115.1649 340.7640 15.23028571 54851 AISat 1 1 44104U 19018AC 20086.75304543 .00000919 00000-0 31838-4 0 9995 2 44104 97.4715 155.8801 0059371 145.2404 215.2738 15.30912367 55152 Raavana-1 1 44329U 98067QE 20086.85337166 .00010901 00000-0 15879-3 0 9991 2 44329 051.6408 027.7896 0007064 059.6642 300.5048 15.56266147044131 Uguisu 1 44330U 98067QF 20086.86200376 .00010442 00000-0 15276-3 0 9997 2 44330 051.6406 027.8441 0007072 058.2636 301.9044 15.56201510044117 NepaliSat-1 1 44331U 98067QG 20086.84728640 .00011375 00000-0 16520-3 0 9994 2 44331 051.6407 027.7484 0007095 060.9391 299.2311 15.56296252044122 Prox-1 1 44339U 19036A 20086.78106721 .00001003 00000-0 18893-3 0 9996 2 44339 024.0031 272.0528 0011469 327.8691 032.1075 14.52898322040093 Oculus-ASR 1 44348U 19036K 20086.72394869 .00012976 00000-0 19586-3 0 9993 2 44348 028.5153 205.3250 0373988 146.0753 216.4348 15.00870911041353 Armadillo 1 44352U 19036P 20086.67358142 .00018595 00000-0 28167-3 0 9994 2 44352 028.5301 203.2732 0364477 148.9151 213.3536 15.02879434041324 NO-104 1 44354U 19036R 20086.57687314 .00012347 00000-0 18338-3 0 9999 2 44354 028.5296 204.3410 0370947 146.7268 215.7228 15.01790566041341 NO-103 1 44355U 19036S 20086.64907823 .00021980 00000-0 31900-3 0 9991 2 44355 28.5299 199.0858 0355368 155.2695 206.5386 15.05664897 41399 CP9 1 44360U 19036X 20086.61824190 .00040433 -54210-5 49101-3 0 9993 2 44360 28.5145 190.4890 0343934 169.8491 190.9259 15.11134053 41351 Move-IIb 1 44398U 19038N 20086.84123995 .00001289 00000-0 77986-4 0 9997 2 44398 097.5275 049.1813 0026817 054.1850 306.1866 15.12135308040090 SONATE 1 44400U 19038Q 20086.85814888 .00000521 00000-0 34035-4 0 9996 2 44400 097.5306 049.2170 0026645 052.6948 307.6705 15.11871213040095 BeeSat 9 1 44412U 19038AC 20086.88983928 .00000953 00000-0 58717-4 0 9996 2 44412 097.5295 049.3068 0024291 057.9987 302.3600 15.12156691039796 JAISAT-1 1 44419U 19038F 20086.87032013 .00000900 00000-0 54975-4 0 9996 2 44419 097.5297 049.4893 0023141 057.6062 302.7404 15.12639324040119 LightSail-2 1 44420U 19036AC 20086.83203952 .00006731 00000-0 14818-2 0 9992 2 44420 024.0107 269.5875 0024149 303.9217 055.8956 14.54903746038278 Taurus 1 1 44530U 19059C 20086.80587571 .00001711 00000-0 49851-3 0 9997 2 44530 98.5709 167.1017 0015615 53.6972 306.5651 14.45379347 28406 MO-106 1 44830U 19084G 20086.71850815 .00033889 00000-0 26445-3 0 9997 2 44830 096.9880 315.4736 0033578 191.0731 168.9798 15.70822977017439 TRSI-Sat 1 44831U 19084H 20086.08121593 .00033549 00000-0 26283-3 0 9995 2 44831 096.9892 314.8509 0033591 192.7763 167.2653 15.70731082017340 MO-105 1 44832U 19084J 20086.76202888 .00034638 00000-0 26463-3 0 9998 2 44832 096.9889 315.5725 0032934 189.8529 170.2094 15.71350930017446 Duchifat 3 1 44854U 19089C 20086.76566038 .00000416 00000-0 40098-4 0 9995 2 44854 36.9662 226.9996 0006711 108.6479 251.4991 14.99004056 15883 OPS-SAT 1 44878U 19092F 20086.56689335 -.00000066 00000-0 00000-0 0 9996 2 44878 097.4664 271.2591 0012829 283.5273 076.4604 15.15324066014980 FloripaSat 1 1 44885U 19093G 20086.75092879 .00000236 00000-0 36481-4 0 9991 2 44885 97.9631 163.4148 0013605 321.7851 38.2386 14.81988465 14453 SwampSat-2 1 45115U 19071E 20086.88985086 .00011056 00000-0 34424-3 0 9995 2 45115 051.6427 042.1780 0013706 117.0998 243.1384 15.33701157008441 HuskySat-1 1 45119U 19071J 20086.43492536 .00001998 00000-0 72719-4 0 9997 2 45119 051.6436 044.3889 0012943 113.4321 246.8023 15.33263894008385 QARMAN 1 45257U 98067RA 20086.88280278 .00005372 00000-0 10127-3 0 9993 2 45257 051.6432 035.4820 0009118 059.0343 301.1541 15.50207326005697 AztechSat-1 1 45258U 98067RB 20086.56145419 .00004318 00000-0 83224-4 0 9994 2 45258 51.6429 37.0841 0006902 41.6543 318.4970 15.50131685 5615 /EX